Weather History for KEPH - October, 2013

Change the Weather History Date:

Wednesday, October 23, 2013

  Actual Average Record
Temperature  
Mean Temperature 56 °F 47 °F  
Max Temperature 70 °F 58 °F 70 °F (2007)
Min Temperature 42 °F 36 °F 26 °F (1984)
Degree Days  
Heating Degree Days 9 18  
Month to date heating degree days 309 294  
Since 1 July heating degree days 417 421  
Cooling Degree Days 0 0  
Month to date cooling degree days 0 0  
Year to date cooling degree days 1084 769  
Growing Degree Days 6 (Base 50)    
Moisture  
Dew Point 40 °F    
Average Humidity 60    
Maximum Humidity 83    
Minimum Humidity 37    
Precipitation  
Precipitation 0.00 in 0.02 in 0.27 in (1989)
Month to date precipitation T 0.34  
Year to date precipitation 4.97 5.36  
Sea Level Pressure  
Sea Level Pressure 30.11 in    
Wind  
Wind Speed 7 mph (NNW)    
Max Wind Speed 12 mph    
Max Gust Speed 16 mph    
Visibility 9 miles    
Events      
T = Trace of Precipitation, MM = Missing Value Source: NWS Daily Summary

Daily Weather History Graph

Daily Weather History Graph

Search for Another Location

Airport or City:

Trip Planner

Search our weather history database for the weather conditions in past years. The results will help you decide how hot, cold, wet, or windy it might be!

Date:

Astronomy

Oct. 23, 2013 Rise Set
Actual Time 7:28 AM PDT 5:55 PM PDT
Civil Twilight 6:57 AM PDT 6:26 PM PDT
Nautical Twilight 6:21 AM PDT 7:02 PM PDT
Astronomical Twilight 5:46 AM PDT 7:37 PM PDT
Moon 9:20 PM PDT (10/23) 11:59 AM PDT (10/23)
Length of Visible Light 11h 29m
Length of Day
10h 26m
Waning Gibbous, 78% of the Moon is Illuminated
Oct 23
Waning Gibbous
Oct 26
Last Quarter
Nov 3
New
Nov 9
First Quarter
Nov 17
Full

Hourly Weather History & Observations

Time (PDT) Temp. Windchill Dew Point Humidity Pressure Visibility Wind Dir Wind Speed Gust Speed Precip Events Conditions
12:53 AM 46.9 °F - 37.9 °F 71% 30.11 in 10.0 mi North 6.9 mph - N/A   Clear
1:53 AM 45.0 °F 41.8 °F 37.0 °F 74% 30.11 in 10.0 mi North 5.8 mph - N/A   Clear
2:53 AM 46.9 °F - 37.9 °F 71% 30.11 in 10.0 mi NW 5.8 mph - N/A   Clear
3:53 AM 48.9 °F - 39.9 °F 71% 30.10 in 7.0 mi NW 8.1 mph - N/A   Clear
4:53 AM 48.9 °F - 39.9 °F 71% 30.11 in 6.0 mi NW 9.2 mph - N/A   Haze
5:53 AM 48.0 °F - 39.0 °F 71% 30.12 in 6.0 mi NNW 4.6 mph - N/A   Haze
6:53 AM 45.0 °F 41.2 °F 39.9 °F 82% 30.14 in 6.0 mi North 6.9 mph - N/A   Haze
7:53 AM 43.0 °F 38.2 °F 37.9 °F 82% 30.14 in 10.0 mi North 8.1 mph - N/A   Clear
8:53 AM 48.9 °F - 41.0 °F 74% 30.15 in 6.0 mi North 5.8 mph - N/A   Haze
9:53 AM 54.0 °F - 42.1 °F 64% 30.16 in 10.0 mi NNE 6.9 mph - N/A   Clear
10:53 AM 60.1 °F - 43.0 °F 53% 30.15 in 10.0 mi NNE 5.8 mph - N/A   Clear
11:53 AM 64.0 °F - 42.1 °F 45% 30.14 in 10.0 mi NE 8.1 mph - N/A   Clear
12:53 PM 66.0 °F - 43.0 °F 43% 30.13 in 10.0 mi NE 8.1 mph - N/A   Clear
1:53 PM 68.0 °F - 42.1 °F 39% 30.11 in 10.0 mi NE 9.2 mph - N/A   Clear
2:53 PM 69.1 °F - 42.1 °F 38% 30.09 in 9.0 mi NNW 5.8 mph - N/A   Clear
3:53 PM 70.0 °F - 42.1 °F 36% 30.08 in 10.0 mi North 6.9 mph - N/A   Clear
4:53 PM 69.1 °F - 42.1 °F 38% 30.07 in 10.0 mi NNW 5.8 mph - N/A   Clear
5:53 PM 64.9 °F - 42.1 °F 43% 30.06 in 10.0 mi NW 3.5 mph - N/A   Clear
6:53 PM 60.1 °F - 39.9 °F 47% 30.07 in 10.0 mi NW 8.1 mph - N/A   Clear
7:53 PM 57.9 °F - 39.9 °F 51% 30.08 in 10.0 mi NNW 4.6 mph - N/A   Clear
8:53 PM 57.0 °F - 39.9 °F 53% 30.07 in 10.0 mi NNW 6.9 mph - N/A   Clear
9:53 PM 53.1 °F - 39.9 °F 61% 30.08 in 10.0 mi NNW 6.9 mph - N/A   Clear
10:53 PM 54.0 °F - 39.9 °F 59% 30.09 in 10.0 mi NW 9.2 mph - N/A   Clear
11:53 PM 53.1 °F - 39.9 °F 61% 30.09 in 10.0 mi NW 9.2 mph - N/A   Clear